No particular awareness of the weather is required.    There are no Weather-warnings


Meteo18 Weather Cam more information Meteo18 Weather Cam


Thunder radar more information blitzortung!


Rain radar more information rain snow radar


Visit our other weather sites:

Template documentation
and downloads

And another site



Weather Underground History page Text

Daily Summary for August 7, 2017 Units:  English    Metric   Both
« Previous Day
Next Day »
Daily Weekly Monthly Yearly Custom
  High: Low: Average:
Temperature: TemperatureC °F 11.8 °F 20 °F
Dew Point: DewpointC °F 8.0 °F 9.9 °F
Humidity: Humidity % 32 % 54 %
Wind Speed: WindSpeedKMH mph 0.0 mph 3.6 mph
Wind Gust: WindSpeedGustKMH mph - -
Wind:- - SE
Pressure: PressurehPa in 1012.4 in -
Precipitation: 0.0 in    
Historical Graphs
 
 
Tabular Data for August 7, 2017
Time Temperature Dew Point Pressure Wind Wind Speed Wind Gust Humidity Rainfall Rate (Hourly)
TemperatureC °F DewpointC °F PressurehPa in Calm     Humidity % HourlyPrecipMM in
00:02 15.3 °F 8.8 °F 1022.2 in NNE 1.6 mph 3.2 mph 65 % 0.0 in
00:07 15.3 °F 8.5 °F 1022.2 in North 1.6 mph 3.2 mph 64 % 0.0 in
00:17 15.3 °F 8.5 °F 1022.2 in Calm   3.2 mph 64 % 0.0 in
00:22 15.2 °F 8.4 °F 1022.2 in Calm   1.6 mph 64 % 0.0 in
00:27 15.1 °F 8.3 °F 1022.2 in Calm     64 % 0.0 in
00:32 15.3 °F 8.3 °F 1022.2 in Calm   3.2 mph 63 % 0.0 in
00:37 15.3 °F 8.3 °F 1022.2 in WNW 1.6 mph 3.2 mph 63 % 0.0 in
00:42 14.9 °F 8.1 °F 1022.2 in NW 1.6 mph 3.2 mph 64 % 0.0 in
00:47 14.8 °F 8.3 °F 1022.2 in WNW 1.6 mph 3.2 mph 65 % 0.0 in
00:52 14.6 °F 8.3 °F 1022.2 in WNW 1.6 mph 3.2 mph 66 % 0.0 in
00:57 14.7 °F 8.2 °F 1022.2 in Calm   3.2 mph 65 % 0.0 in
01:02 14.7 °F 8.2 °F 1022.2 in NNW 1.6 mph 1.6 mph 65 % 0.0 in
01:07 14.7 °F 8.2 °F 1022.2 in Calm   1.6 mph 65 % 0.0 in
01:12 14.7 °F 8.2 °F 1022.2 in Calm   1.6 mph 65 % 0.0 in
01:17 14.6 °F 8.3 °F 1022.2 in Calm   1.6 mph 66 % 0.0 in
01:22 14.4 °F 8.1 °F 1022.2 in Calm   3.2 mph 66 % 0.0 in
01:27 14.2 °F 8.2 °F 1021.9 in Calm   3.2 mph 67 % 0.0 in
01:32 14.1 °F 8.3 °F 1021.9 in Calm   1.6 mph 68 % 0.0 in
01:37 14.1 °F 8.3 °F 1021.9 in North 1.6 mph 3.2 mph 68 % 0.0 in
01:42 14.1 °F 8.3 °F 1021.9 in NW 1.6 mph 3.2 mph 68 % 0.0 in
02:02 14.2 °F 8.4 °F 1021.9 in Calm   1.6 mph 68 % 0.0 in
02:07 14.1 °F 8.3 °F 1021.9 in NW 1.6 mph 1.6 mph 68 % 0.0 in
02:12 13.9 °F 8.3 °F 1021.9 in Calm   1.6 mph 69 % 0.0 in
02:17 14.0 °F 8.4 °F 1021.6 in NW 1.6 mph 1.6 mph 69 % 0.0 in
02:22 14.2 °F 8.4 °F 1021.6 in Calm   1.6 mph 68 % 0.0 in
02:32 14.2 °F 8.4 °F 1021.6 in NW 1.6 mph 1.6 mph 68 % 0.0 in
02:37 14.1 °F 8.5 °F 1021.6 in NNW 1.6 mph 3.2 mph 69 % 0.0 in
02:42 14.0 °F 8.4 °F 1021.6 in NNW 1.6 mph 3.2 mph 69 % 0.0 in
02:47 13.8 °F 8.4 °F 1021.6 in NNW 1.6 mph 3.2 mph 70 % 0.0 in
02:52 13.8 °F 8.4 °F 1021.6 in NNW 1.6 mph 3.2 mph 70 % 0.0 in
02:57 13.9 °F 8.5 °F 1021.6 in NNW 1.6 mph 3.2 mph 70 % 0.0 in
03:02 13.9 °F 8.5 °F 1021.6 in NNW 1.6 mph 3.2 mph 70 % 0.0 in
03:07 13.9 °F 8.5 °F 1021.6 in NNW 1.6 mph 3.2 mph 70 % 0.0 in
03:12 13.8 °F 8.4 °F 1021.6 in Calm   3.2 mph 70 % 0.0 in
03:17 13.7 °F 8.5 °F 1021.2 in Calm   3.2 mph 71 % 0.0 in
03:22 13.6 °F 8.4 °F 1021.2 in NNW 1.6 mph 3.2 mph 71 % 0.0 in
03:27 13.6 °F 8.6 °F 1021.2 in NNW 1.6 mph 3.2 mph 72 % 0.0 in
03:32 13.6 °F 8.6 °F 1021.2 in NNW 1.6 mph 3.2 mph 72 % 0.0 in
03:37 13.6 °F 8.4 °F 1021.2 in NW 1.6 mph 4.8 mph 71 % 0.0 in
03:42 13.6 °F 8.4 °F 1021.2 in NNW 3.2 mph 6.4 mph 71 % 0.0 in
03:52 13.7 °F 8.5 °F 1020.9 in NW 1.6 mph 6.4 mph 71 % 0.0 in
03:57 13.6 °F 8.4 °F 1020.9 in Calm   4.8 mph 71 % 0.0 in
04:02 13.6 °F 8.6 °F 1020.9 in Calm   4.8 mph 72 % 0.0 in
04:07 13.6 °F 8.4 °F 1020.9 in Calm   3.2 mph 71 % 0.0 in
04:12 13.6 °F 8.4 °F 1020.9 in NNW 3.2 mph 3.2 mph 71 % 0.0 in
04:17 13.6 °F 8.4 °F 1020.9 in NNW 1.6 mph 4.8 mph 71 % 0.0 in
04:22 13.6 °F 8.4 °F 1020.5 in NNW 1.6 mph 4.8 mph 71 % 0.0 in
04:27 13.4 °F 8.2 °F 1020.5 in NNW 1.6 mph 4.8 mph 71 % 0.0 in
04:32 13.4 °F 8.5 °F 1020.5 in NNW 1.6 mph 4.8 mph 72 % 0.0 in
04:37 13.4 °F 8.5 °F 1020.5 in Calm   4.8 mph 72 % 0.0 in
04:42 13.4 °F 8.2 °F 1020.5 in NNW 1.6 mph 4.8 mph 71 % 0.0 in
04:47 13.4 °F 8.5 °F 1020.5 in North 1.6 mph 3.2 mph 72 % 0.0 in
04:52 13.5 °F 8.3 °F 1020.5 in North 1.6 mph 3.2 mph 71 % 0.0 in
04:57 13.3 °F 8.4 °F 1020.5 in North 1.6 mph 3.2 mph 72 % 0.0 in
05:02 13.1 °F 8.2 °F 1020.5 in North 1.6 mph 3.2 mph 72 % 0.0 in
05:07 13.1 °F 8.4 °F 1020.5 in NNW 1.6 mph 3.2 mph 73 % 0.0 in
05:17 13.2 °F 8.5 °F 1020.2 in NW 1.6 mph 3.2 mph 73 % 0.0 in
05:22 13.2 °F 8.5 °F 1020.2 in Calm   4.8 mph 73 % 0.0 in
05:27 13.2 °F 8.3 °F 1020.2 in Calm   4.8 mph 72 % 0.0 in
05:32 13.2 °F 8.3 °F 1020.2 in NNW 1.6 mph 4.8 mph 72 % 0.0 in
05:37 13.2 °F 8.5 °F 1020.2 in NNW 1.6 mph 3.2 mph 73 % 0.0 in
05:42 13.1 °F 8.4 °F 1020.2 in NNW 1.6 mph 3.2 mph 73 % 0.0 in
05:47 13.1 °F 8.4 °F 1020.2 in NNW 1.6 mph 3.2 mph 73 % 0.0 in
05:52 13.2 °F 8.5 °F 1020.2 in Calm   4.8 mph 73 % 0.0 in
05:57 13.1 °F 8.4 °F 1020.2 in Calm   4.8 mph 73 % 0.0 in
06:02 13.0 °F 8.3 °F 1020.2 in Calm   4.8 mph 73 % 0.0 in
06:12 12.5 °F 8.0 °F 1019.9 in Calm   1.6 mph 74 % 0.0 in
06:17 12.4 °F 8.1 °F 1019.9 in WNW 1.6 mph 1.6 mph 75 % 0.0 in
06:22 12.2 °F 8.1 °F 1019.9 in WNW 3.2 mph 3.2 mph 76 % 0.0 in
06:27 12.1 °F 8.2 °F 1019.9 in Calm   1.6 mph 77 % 0.0 in
06:32 12.1 °F 8.2 °F 1019.9 in WNW 1.6 mph 3.2 mph 77 % 0.0 in
06:37 11.9 °F 8.2 °F 1019.9 in WNW 1.6 mph 3.2 mph 78 % 0.0 in
06:42 11.9 °F 8.0 °F 1019.9 in WNW 1.6 mph 3.2 mph 77 % 0.0 in
06:47 11.9 °F 8.0 °F 1019.9 in Calm   3.2 mph 77 % 0.0 in
06:52 11.8 °F 8.1 °F 1019.9 in WNW 1.6 mph 4.8 mph 78 % 0.0 in
07:02 12.3 °F 8.4 °F 1019.9 in Calm   4.8 mph 77 % 0.0 in
07:12 13.0 °F 8.5 °F 1019.9 in Calm   4.8 mph 74 % 0.0 in
07:17 13.1 °F 8.6 °F 1019.9 in Calm   4.8 mph 74 % 0.0 in
07:22 13.3 °F 8.4 °F 1019.9 in Calm   4.8 mph 72 % 0.0 in
07:27 13.3 °F 8.6 °F 1019.9 in Calm   3.2 mph 73 % 0.0 in
07:32 13.5 °F 8.8 °F 1019.9 in Calm   3.2 mph 73 % 0.0 in
07:42 14.3 °F 9.1 °F 1019.9 in Calm   3.2 mph 71 % 0.0 in
07:47 14.7 °F 9.5 °F 1019.9 in Calm   3.2 mph 71 % 0.0 in
07:52 14.9 °F 9.3 °F 1019.9 in Calm   3.2 mph 69 % 0.0 in
07:57 15.2 °F 9.5 °F 1019.9 in North 3.2 mph 3.2 mph 69 % 0.0 in
08:02 15.4 °F 9.5 °F 1019.9 in NNW 6.4 mph 6.4 mph 68 % 0.0 in
08:07 15.6 °F 9.5 °F 1019.9 in North 4.8 mph 6.4 mph 67 % 0.0 in
08:12 15.7 °F 9.6 °F 1019.9 in North 4.8 mph 6.4 mph 67 % 0.0 in
08:17 15.9 °F 9.6 °F 1019.5 in North 3.2 mph 6.4 mph 66 % 0.0 in
08:22 16.2 °F 9.8 °F 1019.9 in NE 4.8 mph 8.0 mph 66 % 0.0 in
08:32 16.7 °F 10.1 °F 1019.5 in North 4.8 mph 8.0 mph 65 % 0.0 in
08:42 17.3 °F 10.2 °F 1019.5 in North 6.4 mph 8.0 mph 63 % 0.0 in
08:47 17.4 °F 9.6 °F 1019.5 in NNE 3.2 mph 9.7 mph 60 % 0.0 in
08:52 17.8 °F 9.9 °F 1019.5 in NNE 4.8 mph 9.7 mph 60 % 0.0 in
09:07 18.3 °F 9.6 °F 1019.9 in NE 3.2 mph 9.7 mph 57 % 0.0 in
09:12 18.3 °F 9.6 °F 1019.5 in NNW 3.2 mph 9.7 mph 57 % 0.0 in
09:17 18.4 °F 9.5 °F 1019.5 in ENE 1.6 mph 9.7 mph 56 % 0.0 in
09:22 18.8 °F 9.8 °F 1019.5 in Calm   9.7 mph 56 % 0.0 in
09:27 18.8 °F 9.3 °F 1019.5 in ENE 8.0 mph 9.7 mph 54 % 0.0 in
09:32 18.9 °F 9.7 °F 1019.5 in NE 3.2 mph 9.7 mph 55 % 0.0 in
09:42 19.1 °F 9.3 °F 1019.9 in ENE 6.4 mph 9.7 mph 53 % 0.0 in
09:47 19.1 °F 9.3 °F 1019.9 in East 6.4 mph 11.3 mph 53 % 0.0 in
09:52 19.2 °F 9.7 °F 1019.5 in NE 3.2 mph 11.3 mph 54 % 0.0 in
09:57 19.4 °F 9.6 °F 1019.5 in ENE 4.8 mph 8.0 mph 53 % 0.0 in
10:02 19.4 °F 9.6 °F 1019.5 in NE 4.8 mph 8.0 mph 53 % 0.0 in
10:07 19.6 °F 9.8 °F 1019.5 in ENE 3.2 mph 8.0 mph 53 % 0.0 in
10:12 19.8 °F 9.9 °F 1019.2 in Calm   9.7 mph 53 % 0.0 in
10:17 20.2 °F 9.7 °F 1019.2 in NE 6.4 mph 9.7 mph 51 % 0.0 in
10:22 20.1 °F 9.6 °F 1019.2 in Calm   9.7 mph 51 % 0.0 in
10:42 20.9 °F 10.1 °F 1019.2 in Calm   8.0 mph 50 % 0.0 in
10:47 20.9 °F 10.4 °F 1019.2 in NNE 3.2 mph 9.7 mph 51 % 0.0 in
10:52 21.2 °F 10.1 °F 1019.2 in NNE 8.0 mph 9.7 mph 49 % 0.0 in
10:57 21.1 °F 10.3 °F 1019.2 in NNE 1.6 mph 9.7 mph 50 % 0.0 in
11:02 21.6 °F 10.7 °F 1018.8 in ENE 4.8 mph 9.7 mph 50 % 0.0 in
11:07 21.6 °F 10.4 °F 1018.8 in East 4.8 mph 9.7 mph 49 % 0.0 in
11:12 21.6 °F 10.1 °F 1018.8 in ENE 3.2 mph 8.0 mph 48 % 0.0 in
11:17 21.7 °F 10.2 °F 1018.8 in ENE 4.8 mph 8.0 mph 48 % 0.0 in
11:22 21.7 °F 10.2 °F 1018.8 in ENE 6.4 mph 9.7 mph 48 % 0.0 in
11:32 22.1 °F 10.3 °F 1018.5 in ENE 3.2 mph 12.9 mph 47 % 0.0 in
11:37 22.2 °F 9.7 °F 1018.5 in NE 4.8 mph 12.9 mph 45 % 0.0 in
11:42 22.3 °F 9.5 °F 1018.5 in NNE 11.3 mph 12.9 mph 44 % 0.0 in
11:52 22.5 °F 9.6 °F 1018.5 in East 4.8 mph 14.5 mph 44 % 0.0 in
11:57 22.5 °F 10.3 °F 1018.5 in ENE 6.4 mph 14.5 mph 46 % 0.0 in
12:02 22.8 °F 10.6 °F 1018.2 in ENE 6.4 mph 14.5 mph 46 % 0.0 in
12:07 22.7 °F 9.8 °F 1018.2 in ENE 11.3 mph 17.7 mph 44 % 0.0 in
12:12 22.5 °F 9.3 °F 1018.2 in NE 11.3 mph 17.7 mph 43 % 0.0 in
12:17 22.6 °F 9.7 °F 1018.2 in SSE 3.2 mph 17.7 mph 44 % 0.0 in
12:22 22.8 °F 9.9 °F 1018.2 in East 8.0 mph 17.7 mph 44 % 0.0 in
12:32 23.1 °F 10.2 °F 1018.2 in ENE 3.2 mph 14.5 mph 44 % 0.0 in
12:37 23.2 °F 9.9 °F 1018.2 in Calm   14.5 mph 43 % 0.0 in
12:42 23.1 °F 10.2 °F 1017.8 in ENE 3.2 mph 12.9 mph 44 % 0.0 in
12:47 23.3 °F 9.7 °F 1017.8 in North 11.3 mph 12.9 mph 42 % 0.0 in
12:52 23.3 °F 9.7 °F 1017.8 in ENE 6.4 mph 12.9 mph 42 % 0.0 in
12:57 23.6 °F 9.2 °F 1017.8 in ENE 6.4 mph 16.1 mph 40 % 0.0 in
13:02 23.7 °F 9.3 °F 1017.5 in East 1.6 mph 16.1 mph 40 % 0.0 in
13:12 23.9 °F 9.5 °F 1017.5 in NE 4.8 mph 19.3 mph 40 % 0.0 in
13:17 23.8 °F 9.4 °F 1017.5 in ESE 1.6 mph 19.3 mph 40 % 0.0 in
13:22 23.7 °F 9.7 °F 1017.2 in NNE 6.4 mph 19.3 mph 41 % 0.0 in
13:27 24.1 °F 9.7 °F 1017.2 in NE 4.8 mph 19.3 mph 40 % 0.0 in
13:32 24.2 °F 10.1 °F 1017.2 in ENE 8.0 mph 19.3 mph 41 % 0.0 in
13:37 24.3 °F 10.6 °F 1017.2 in ENE 4.8 mph 19.3 mph 42 % 0.0 in
13:42 24.3 °F 10.2 °F 1016.8 in NE 6.4 mph 19.3 mph 41 % 0.0 in
13:47 24.4 °F 10.3 °F 1016.8 in East 8.0 mph 19.3 mph 41 % 0.0 in
13:52 24.7 °F 10.2 °F 1016.8 in North 9.7 mph 19.3 mph 40 % 0.0 in
13:57 24.6 °F 10.8 °F 1016.5 in NE 4.8 mph 19.3 mph 42 % 0.0 in
14:02 24.7 °F 10.9 °F 1016.5 in East 6.4 mph 17.7 mph 42 % 0.0 in
14:07 24.7 °F 10.2 °F 1016.5 in Calm   22.5 mph 40 % 0.0 in
14:12 24.6 °F 10.1 °F 1016.5 in NE 6.4 mph 22.5 mph 40 % 0.0 in
14:17 25.0 °F 10.1 °F 1016.5 in SE 6.4 mph 22.5 mph 39 % 0.0 in
14:22 25.0 °F 8.5 °F 1016.5 in NE 6.4 mph 17.7 mph 35 % 0.0 in
14:27 24.9 °F 9.6 °F 1016.5 in ESE 3.2 mph 19.3 mph 38 % 0.0 in
14:32 25.1 °F 9.8 °F 1016.5 in ENE 9.7 mph 19.3 mph 38 % 0.0 in
14:37 25.1 °F 9.4 °F 1016.1 in NE 9.7 mph 17.7 mph 37 % 0.0 in
14:42 24.9 °F 9.6 °F 1016.1 in NE 1.6 mph 14.5 mph 38 % 0.0 in
14:47 25.1 °F 9.4 °F 1016.1 in ESE 1.6 mph 14.5 mph 37 % 0.0 in
14:52 25.1 °F 9.8 °F 1016.1 in NE 14.5 mph 14.5 mph 38 % 0.0 in
14:57 25.1 °F 9.4 °F 1015.8 in NE 6.4 mph 20.9 mph 37 % 0.0 in
15:02 25.3 °F 9.6 °F 1015.8 in NE 11.3 mph 20.9 mph 37 % 0.0 in
15:07 25.2 °F 9.9 °F 1016.1 in East 8.0 mph 20.9 mph 38 % 0.0 in
15:17 25.4 °F 10.0 °F 1015.8 in ENE 8.0 mph 19.3 mph 38 % 0.0 in
15:22 25.7 °F 9.5 °F 1015.8 in ENE 11.3 mph 14.5 mph 36 % 0.0 in
15:32 25.8 °F 10.4 °F 1015.5 in NE 6.4 mph 16.1 mph 38 % 0.0 in
15:37 25.8 °F 9.2 °F 1015.5 in ENE 9.7 mph 20.9 mph 35 % 0.0 in
15:42 25.8 °F 9.2 °F 1015.5 in East 3.2 mph 20.9 mph 35 % 0.0 in
15:47 26.0 °F 9.8 °F 1015.5 in ESE 8.0 mph 20.9 mph 36 % 0.0 in
15:52 25.9 °F 9.3 °F 1015.5 in North 6.4 mph 19.3 mph 35 % 0.0 in
15:57 25.9 °F 8.8 °F 1015.1 in ENE 6.4 mph 19.3 mph 34 % 0.0 in
16:02 26.3 °F 9.6 °F 1015.1 in ESE 3.2 mph 14.5 mph 35 % 0.0 in
16:07 26.6 °F 9.0 °F 1015.1 in East 1.6 mph 14.5 mph 33 % 0.0 in
16:12 26.7 °F 9.1 °F 1015.1 in SSE 3.2 mph 12.9 mph 33 % 0.0 in
16:17 26.8 °F 10.1 °F 1015.1 in Calm   11.3 mph 35 % 0.0 in
16:22 27.1 °F 9.0 °F 1015.1 in East 1.6 mph 11.3 mph 32 % 0.0 in
16:27 27.2 °F 9.5 °F 1015.1 in ENE 4.8 mph 8.0 mph 33 % 0.0 in
16:32 27.3 °F 9.6 °F 1014.8 in NE 8.0 mph 9.7 mph 33 % 0.0 in
16:37 27.0 °F 8.9 °F 1015.1 in ENE 4.8 mph 19.3 mph 32 % 0.0 in
16:42 26.7 °F 9.5 °F 1014.8 in ENE 8.0 mph 20.9 mph 34 % 0.0 in
16:47 26.9 °F 9.7 °F 1014.8 in ESE 3.2 mph 20.9 mph 34 % 0.0 in
16:52 27.3 °F 10.1 °F 1014.8 in NE 3.2 mph 17.7 mph 34 % 0.0 in
16:57 26.8 °F 9.6 °F 1014.4 in NE 8.0 mph 14.5 mph 34 % 0.0 in
17:02 26.7 °F 9.5 °F 1014.4 in ENE 8.0 mph 11.3 mph 34 % 0.0 in
17:07 27.0 °F 9.8 °F 1014.4 in NE 6.4 mph 11.3 mph 34 % 0.0 in
17:12 26.9 °F 10.6 °F 1014.4 in Calm   11.3 mph 36 % 0.0 in
17:17 27.1 °F 10.3 °F 1014.4 in NE 4.8 mph 11.3 mph 35 % 0.0 in
17:22 26.9 °F 10.1 °F 1014.4 in ENE 9.7 mph 9.7 mph 35 % 0.0 in
17:27 27.1 °F 10.3 °F 1014.4 in NE 12.9 mph 14.5 mph 35 % 0.0 in
17:32 26.8 °F 10.1 °F 1014.4 in ENE 12.9 mph 14.5 mph 35 % 0.0 in
17:37 26.6 °F 9.9 °F 1014.4 in ENE 4.8 mph 17.7 mph 35 % 0.0 in
17:42 26.6 °F 9.9 °F 1014.4 in NE 4.8 mph 17.7 mph 35 % 0.0 in
17:52 26.6 °F 10.7 °F 1014.1 in SSW 1.6 mph 8.0 mph 37 % 0.0 in
17:57 26.7 °F 10.0 °F 1014.1 in ENE 1.6 mph 8.0 mph 35 % 0.0 in
18:02 27.0 °F 10.7 °F 1014.1 in Calm   8.0 mph 36 % 0.0 in
18:07 27.4 °F 10.6 °F 1014.1 in East 4.8 mph 8.0 mph 35 % 0.0 in
18:12 27.2 °F 10.8 °F 1013.8 in NNE 4.8 mph 9.7 mph 36 % 0.0 in
18:17 27.2 °F 10.4 °F 1013.8 in NNE 3.2 mph 14.5 mph 35 % 0.0 in
18:22 27.1 °F 10.3 °F 1013.8 in NNE 1.6 mph 14.5 mph 35 % 0.0 in
18:27 26.8 °F 10.5 °F 1013.8 in NNW 4.8 mph 14.5 mph 36 % 0.0 in
18:32 26.7 °F 10.4 °F 1013.8 in North 6.4 mph 11.3 mph 36 % 0.0 in
18:37 26.6 °F 10.7 °F 1013.8 in NNE 12.9 mph 12.9 mph 37 % 0.0 in
18:42 26.3 °F 10.8 °F 1013.8 in North 4.8 mph 12.9 mph 38 % 0.0 in
18:52 26.1 °F 10.7 °F 1013.8 in East 3.2 mph 12.9 mph 38 % 0.0 in
18:57 26.1 °F 11.1 °F 1013.8 in Calm   9.7 mph 39 % 0.0 in
19:02 26.1 °F 11.1 °F 1013.8 in ENE 1.6 mph 9.7 mph 39 % 0.0 in
19:07 26.1 °F 11.1 °F 1013.8 in NE 4.8 mph 8.0 mph 39 % 0.0 in
19:12 25.9 °F 10.9 °F 1013.8 in NE 4.8 mph 8.0 mph 39 % 0.0 in
19:17 25.8 °F 10.8 °F 1013.8 in NE 1.6 mph 6.4 mph 39 % 0.0 in
19:22 25.8 °F 10.8 °F 1013.8 in NE 1.6 mph 6.4 mph 39 % 0.0 in
19:27 25.7 °F 10.7 °F 1013.8 in NE 4.8 mph 6.4 mph 39 % 0.0 in
19:32 25.6 °F 11.0 °F 1013.4 in NE 6.4 mph 8.0 mph 40 % 0.0 in
19:37 25.5 °F 11.3 °F 1013.4 in NE 8.0 mph 8.0 mph 41 % 0.0 in
19:42 25.3 °F 11.5 °F 1013.4 in NE 4.8 mph 9.7 mph 42 % 0.0 in
19:52 25.0 °F 11.6 °F 1013.4 in NE 8.0 mph 9.7 mph 43 % 0.0 in
19:57 24.8 °F 11.4 °F 1013.8 in Calm   12.9 mph 43 % 0.0 in
20:02 24.6 °F 11.9 °F 1013.4 in NE 9.7 mph 12.9 mph 45 % 0.0 in
20:07 24.4 °F 11.4 °F 1013.8 in NE 3.2 mph 12.9 mph 44 % 0.0 in
20:12 24.3 °F 11.3 °F 1013.8 in Calm   11.3 mph 44 % 0.0 in
20:22 24.2 °F 11.2 °F 1013.8 in NE 6.4 mph 8.0 mph 44 % 0.0 in
20:27 23.8 °F 11.2 °F 1013.4 in NE 6.4 mph 9.7 mph 45 % 0.0 in
20:32 23.6 °F 11.3 °F 1013.4 in ENE 6.4 mph 9.7 mph 46 % 0.0 in
20:37 23.6 °F 11.3 °F 1013.4 in NE 3.2 mph 12.9 mph 46 % 0.0 in
20:42 23.6 °F 11.3 °F 1013.8 in North 6.4 mph 12.9 mph 46 % 0.0 in
20:47 23.5 °F 11.2 °F 1013.8 in NNW 1.6 mph 11.3 mph 46 % 0.0 in
20:52 23.4 °F 11.1 °F 1013.8 in ENE 4.8 mph 9.7 mph 46 % 0.0 in
20:57 23.3 °F 11.0 °F 1014.1 in NNW 3.2 mph 9.7 mph 46 % 0.0 in
21:02 23.3 °F 11.0 °F 1014.1 in NNW 3.2 mph 8.0 mph 46 % 0.0 in
21:07 23.3 °F 11.0 °F 1014.1 in North 8.0 mph 8.0 mph 46 % 0.0 in
21:12 23.3 °F 11.0 °F 1014.1 in NW 4.8 mph 9.7 mph 46 % 0.0 in
21:17 23.2 °F 11.3 °F 1014.1 in NNE 3.2 mph 9.7 mph 47 % 0.0 in
21:22 23.0 °F 11.4 °F 1013.8 in North 8.0 mph 9.7 mph 48 % 0.0 in
21:27 22.9 °F 11.3 °F 1013.8 in North 4.8 mph 12.9 mph 48 % 0.0 in
21:32 22.8 °F 11.2 °F 1014.1 in ENE 3.2 mph 12.9 mph 48 % 0.0 in
21:37 22.8 °F 11.2 °F 1014.1 in NE 11.3 mph 12.9 mph 48 % 0.0 in
21:42 22.7 °F 11.4 °F 1013.8 in North 11.3 mph 16.1 mph 49 % 0.0 in
21:47 22.6 °F 11.3 °F 1013.8 in NE 12.9 mph 16.1 mph 49 % 0.0 in
21:52 22.5 °F 11.3 °F 1013.8 in NE 8.0 mph 16.1 mph 49 % 0.0 in
21:57 22.3 °F 11.4 °F 1013.1 in ENE 12.9 mph 16.1 mph 50 % 0.0 in
22:02 22.1 °F 12.6 °F 1013.1 in ESE 9.7 mph 20.9 mph 55 % 0.0 in
22:07 21.6 °F 13.0 °F 1013.4 in ENE 9.7 mph 20.9 mph 58 % 0.0 in
22:12 21.2 °F 13.1 °F 1013.8 in ESE 1.6 mph 20.9 mph 60 % 0.0 in
22:17 21.0 °F 12.9 °F 1013.8 in East 4.8 mph 16.1 mph 60 % 0.0 in
22:22 20.8 °F 13.3 °F 1013.4 in East 1.6 mph 11.3 mph 62 % 0.0 in
22:27 20.8 °F 13.0 °F 1013.8 in Calm   11.3 mph 61 % 0.0 in
22:37 20.3 °F 13.7 °F 1013.1 in East 4.8 mph 11.3 mph 66 % 0.0 in
22:42 20.1 °F 14.0 °F 1013.1 in ENE 4.8 mph 8.0 mph 68 % 0.0 in
22:47 20.0 °F 13.9 °F 1012.8 in NE 3.2 mph 6.4 mph 68 % 0.0 in
22:52 19.8 °F 13.9 °F 1012.8 in NNE 3.2 mph 8.0 mph 69 % 0.0 in
22:57 19.8 °F 13.9 °F 1012.8 in NNE 4.8 mph 8.0 mph 69 % 0.0 in
23:02 19.8 °F 14.2 °F 1012.8 in Calm   8.0 mph 70 % 0.0 in
23:07 19.7 °F 13.9 °F 1012.8 in NE 1.6 mph 6.4 mph 69 % 0.0 in
23:12 19.7 °F 14.1 °F 1012.8 in Calm   6.4 mph 70 % 0.0 in
23:17 19.6 °F 14.0 °F 1012.8 in Calm   3.2 mph 70 % 0.0 in
23:22 19.5 °F 14.1 °F 1012.8 in Calm   1.6 mph 71 % 0.0 in
23:27 19.4 °F 14.2 °F 1012.8 in Calm   1.6 mph 72 % 0.0 in
23:32 19.2 °F 14.5 °F 1012.4 in Calm   1.6 mph 74 % 0.0 in
23:37 19.0 °F 14.5 °F 1012.8 in Calm     75 % 0.0 in
23:42 18.9 °F 14.6 °F 1012.4 in Calm     76 % 0.0 in
23:52 18.5 °F 14.6 °F 1012.4 in Calm   1.6 mph 78 % 0.0 in
23:57 18.3 °F 14.2 °F 1012.4 in WNW 3.2 mph 3.2 mph 77 % 0.0 in
Meteo18
Compliments of Weather Underground - 4 mb

Script developed by  Jim McMurry - jmcmurry@mwt.net Adapted for the template by  Wim van der Kuil - Leuven-Template.eu

You find our weather info also at:

European Weather Network

Weather Underground

Equipment we use:

Weather-station
Davis Vue

Weather-program
Meteobridge

Weather-server
Raspberry PI 2 B+

Provider
1 and 1

Davis Vue

Meteobridge

Raspberry PI 2 B+

1 and 1